GW0865 Weather Reports


time (UTC)temp
C
wind
direction
speed
KPH
gust
KPH
rain 1hr
cm
rain 24hr
cm
rain mn
cm
humidity
%
barometer
mb
20260507141545 15 157 1.6 6.4 0.00 0.00 0.00 48 1013.9
20260507140049 15 137 4.8 16.1 0.00 0.00 0.00 50 1014.0
20260507134544 16 210 1.6 8.0 0.00 0.00 0.00 49 1014.0
20260507133041 15 268 3.2 8.0 0.00 0.00 0.00 51 1014.1
20260507131553 15 203 3.2 8.0 0.00 0.00 0.00 54 1014.3
20260507130043 15 80 3.2 11.3 0.00 0.00 0.00 53 1014.3
20260507124551 15 215 6.4 12.9 0.00 0.00 0.00 53 1014.3
20260507123041 15 102 3.2 12.9 0.00 0.00 0.00 49 1014.5
20260507121539 15 127 4.8 12.9 0.00 0.00 0.00 54 1014.3
20260507120042 15 158 1.6 12.9 0.00 0.00 0.00 53 1014.4
20260507114555 15 141 0.0 6.4 0.00 0.00 0.00 60 1014.4
20260507113042 14 112 1.6 8.0 0.00 0.00 0.00 60 1014.4
20260507111538 13 355 1.6 11.3 0.00 0.00 0.00 65 1014.6
20260507110049 12 99 3.2 9.7 0.00 0.00 0.00 66 1014.9
20260507104547 13 257 0.0 4.8 0.00 0.00 0.00 67 1015.1
20260507103045 12 230 1.6 4.8 0.00 0.00 0.00 67 1015.1
20260507101541 12 201 0.0 6.4 0.00 0.00 0.00 71 1015.2
20260507100041 12 180 1.6 6.4 0.00 0.00 0.00 72 1015.1
20260507094541 11 134 1.6 8.0 0.00 0.00 0.00 75 1015.1
20260507093045 11 156 1.6 6.4 0.00 0.00 0.00 78 1015.0
20260507091549 10 122 0.0 4.8 0.00 0.00 0.00 81 1015.0
20260507090043 10 119 1.6 6.4 0.00 0.00 0.00 82 1015.0
20260507084540 10 112 0.0 6.4 0.00 0.00 0.00 84 1015.1
20260507083040 9 115 3.2 6.4 0.00 0.00 0.00 84 1015.1
20260507081547 8 56 3.2 12.9 0.00 0.00 0.00 85 1015.1
20260507080048 8 89 1.6 4.8 0.00 0.00 0.00 87 1015.1
20260507074557 8 163 1.6 8.0 0.00 0.00 0.00 88 1015.1
20260507073041 7 93 1.6 6.4 0.00 0.00 0.00 89 1015.0
20260507071540 7 86 1.6 6.4 0.00 0.00 0.00 89 1015.0
20260507070038 7 106 1.6 8.0 0.00 0.00 0.00 89 1014.9
20260507064538 6 104 3.2 6.4 0.00 0.00 0.00 90 1014.9
20260507063039 6 104 1.6 8.0 0.00 0.00 0.00 90 1014.9
20260507061539 6 130 1.6 6.4 0.00 0.00 0.00 91 1014.8
20260507060039 6 118 1.6 3.2 0.00 0.00 0.00 91 1014.8
20260507054548 6 94 0.0 1.6 0.00 0.00 0.00 92 1014.8
20260507053051 5 0 0.0 4.8 0.00 0.00 0.00 92 1014.7
20260507051540 5 0 1.6 3.2 0.00 0.00 0.00 92 1014.6
20260507050041 5 0 0.0 3.2 0.00 0.00 0.00 93 1014.7
20260507044547 5 0 0.0 1.6 0.00 0.00 0.00 93 1014.7
20260507043041 5 0 0.0 1.6 0.00 0.00 0.00 93 1014.6
20260507041541 5 0 0.0 1.6 0.00 0.00 0.00 93 1014.5
20260507040045 5 0 0.0 3.2 0.00 0.00 0.00 92 1014.4
20260507034546 5 0 1.6 4.8 0.00 0.00 0.00 92 1014.4
20260507033044 5 106 0.0 4.8 0.00 0.00 0.00 92 1014.5
20260507031551 5 0 0.0 1.6 0.00 0.00 0.00 92 1014.6
20260507030049 5 96 0.0 1.6 0.00 0.00 0.00 92 1014.7
20260507024545 5 0 0.0 3.2 0.00 0.00 0.00 92 1014.6
20260507023040 5 115 0.0 4.8 0.00 0.00 0.00 92 1014.6
20260507021538 5 0 0.0 3.2 0.00 0.00 0.00 92 1014.7
20260507020039 5 80 0.0 3.2 0.00 0.00 0.00 91 1014.5
20260507014550 5 0 1.6 4.8 0.00 0.00 0.00 91 1014.5
20260507013038 5 0 0.0 4.8 0.00 0.00 0.00 91 1014.6
20260507011541 5 121 1.6 4.8 0.00 0.00 0.00 91 1014.7
20260507010042 5 0 0.0 4.8 0.00 0.00 0.00 91 1014.6
20260507004539 6 77 0.0 3.2 0.00 0.00 0.00 90 1014.6
20260507003039 6 60 1.6 6.4 0.00 0.00 0.00 90 1014.8
20260507001541 6 94 0.0 3.2 0.00 0.00 0.00 90 1014.8
20260507000042 6 70 0.0 4.8 0.00 0.00 0.00 90 1014.9
20260506234539 5 102 0.0 3.2 0.00 0.00 0.00 90 1015.0
20260506233043 5 119 0.0 4.8 0.00 0.00 0.00 90 1015.0
20260506231538 5 88 0.0 4.8 0.00 0.00 0.00 90 1015.0
20260506230048 5 64 0.0 4.8 0.00 0.00 0.00 89 1015.0
20260506224544 6 0 0.0 3.2 0.00 0.00 0.00 88 1015.0
20260506223047 6 69 3.2 9.7 0.00 0.00 0.00 88 1014.9
20260506221545 6 82 1.6 6.4 0.00 0.00 0.00 87 1014.9
20260506220044 6 60 0.0 6.4 0.00 0.00 0.00 87 1014.8
20260506214539 6 102 1.6 6.4 0.00 0.00 0.00 86 1014.7
20260506213100 6 62 4.8 8.0 0.00 0.00 0.00 86 1014.6
20260506211545 6 83 0.0 4.8 0.00 0.00 0.00 85 1014.7
20260506210045 6 73 0.0 6.4 0.00 0.00 0.00 83 1014.5
20260506204546 7 62 3.2 6.4 0.00 0.00 0.00 83 1014.4
20260506203048 7 108 0.0 8.0 0.00 0.00 0.00 81 1014.3
20260506201547 7 66 1.6 9.7 0.00 0.00 0.00 80 1014.2
20260506200040 8 68 3.2 9.7 0.00 0.00 0.00 78 1014.0
20260506194540 8 104 3.2 9.7 0.00 0.00 0.00 76 1014.0
20260506193039 8 69 3.2 11.3 0.00 0.00 0.00 74 1013.8
20260506191538 9 78 3.2 9.7 0.00 0.00 0.00 72 1013.7
20260506190037 10 61 3.2 11.3 0.00 0.00 0.00 71 1013.7
20260506184544 10 50 1.6 12.9 0.00 0.00 0.00 70 1013.7
20260506183042 10 99 9.7 17.7 0.00 0.00 0.00 69 1013.6
20260506181540 10 50 4.8 14.5 0.00 0.00 0.00 69 1013.5
20260506180101 11 92 6.4 12.9 0.00 0.00 0.00 65 1013.4
20260506174543 11 66 6.4 16.1 0.00 0.00 0.00 62 1013.3
20260506173044 11 107 6.4 17.7 0.00 0.00 0.00 60 1013.1
20260506171729 11 70 9.7 16.1 0.00 0.00 0.00 58 1013.2
20260506170056 11 37 8.0 14.5 0.00 0.00 0.00 58 1013.0
20260506164538 12 25 4.8 16.1 0.00 0.00 0.00 58 1013.0
20260506163056 12 37 6.4 11.3 0.00 0.00 0.00 54 1012.9
20260506161538 12 58 4.8 12.9 0.00 0.00 0.00 49 1012.9
20260506160045 12 67 8.0 20.9 0.00 0.00 0.00 51 1012.9
20260506154604 12 21 1.6 12.9 0.00 0.00 0.00 51 1012.8
20260506153054 12 92 4.8 17.7 0.00 0.00 0.00 52 1012.9
20260506151547 12 91 8.0 16.1 0.00 0.00 0.00 53 1013.1
20260506150040 12 65 8.0 19.3 0.00 0.00 0.00 52 1013.1
20260506144542 12 93 9.7 17.7 0.00 0.00 0.00 49 1013.1
20260506143048 13 312 3.2 12.9 0.00 0.00 0.00 47 1013.0